START_TIME,STEP,MOV.,P1,t_acc.,E44,t_acc.,A3,t_acc.,P10,t_acc.
1979-07-28 21:00:22.390 ,0,0,1.,1.2,94.,1.2,0.,1.2,0.,1.2
1979-07-28 21:00:23.590 ,0,0,0.,1.2,110.,1.2,0.,1.2,0.,1.2
1979-07-28 21:00:24.790 ,0,0,0.,1.2,84.,1.2,0.,1.2,0.,1.2
1979-07-28 21:00:25.990 ,0,0,0.,1.2,100.,1.2,0.,1.2,0.,1.2
1979-07-28 21:00:27.190 ,0,0,0.,1.2,96.,1.2,0.,1.2,0.,1.2
1979-07-28 21:00:28.390 ,0,0,1.,1.2,98.,1.2,0.,1.2,0.,1.2
1979-07-28 21:00:29.590 ,0,0,0.,1.2,106.,1.2,0.,1.2,0.,1.2
1979-07-28 21:00:30.790 ,0,0,0.,1.2,100.,1.2,0.,1.2,0.,1.2
1979-07-28 21:00:31.990 ,0,0,0.,1.2,96.,1.2,0.,1.2,0.,1.2
1979-07-28 21:00:33.190 ,0,0,1.,1.2,122.,1.2,1.,1.2,0.,1.2
1979-07-28 21:00:34.390 ,0,0,1.,1.2,108.,1.2,0.,1.2,0.,1.2
1979-07-28 21:00:35.590 ,0,0,0.,1.2,98.,1.2,0.,1.2,0.,1.2
1979-07-28 21:00:36.790 ,0,0,2.,1.2,82.,1.2,0.,1.2,0.,1.2
1979-07-28 21:00:37.990 ,0,0,1.,1.2,102.,1.2,0.,1.2,0.,1.2
1979-07-28 21:00:39.190 ,0,0,1.,1.2,92.,1.2,0.,1.2,0.,1.2
1979-07-28 21:00:40.390 ,0,0,0.,1.2,94.,1.2,0.,1.2,0.,1.2
1979-07-28 21:00:41.590 ,0,0,0.,1.2,94.,1.2,0.,1.2,0.,1.2
1979-07-28 21:00:42.790 ,0,0,1.,1.2,90.,1.2,0.,1.2,0.,1.2
1979-07-28 21:00:43.990 ,0,0,2.,1.2,108.,1.2,0.,1.2,0.,1.2
1979-07-28 21:00:45.190 ,0,0,0.,1.2,76.,1.2,0.,1.2,0.,1.2
1979-07-28 21:00:46.390 ,0,0,0.,1.2,104.,1.2,0.,1.2,0.,1.2
1979-07-28 21:00:47.590 ,0,0,0.,1.2,100.,1.2,0.,1.2,0.,1.2
1979-07-28 21:00:48.790 ,0,0,1.,1.2,86.,1.2,0.,1.2,0.,1.2
1979-07-28 21:00:49.990 ,0,0,1.,1.2,92.,1.2,0.,1.2,0.,1.2
1979-07-28 21:00:51.190 ,0,0,0.,1.2,106.,1.2,0.,1.2,0.,1.2
1979-07-28 21:00:52.390 ,0,0,1.,1.2,94.,1.2,0.,1.2,0.,1.2
1979-07-28 21:00:53.590 ,0,0,0.,1.2,84.,1.2,0.,1.2,0.,1.2
1979-07-28 21:00:54.790 ,0,0,1.,1.2,108.,1.2,0.,1.2,0.,1.2
1979-07-28 21:00:55.990 ,0,0,0.,1.2,88.,1.2,0.,1.2,0.,1.2
1979-07-28 21:00:57.190 ,0,0,0.,1.2,114.,1.2,0.,1.2,0.,1.2
1979-07-28 21:00:58.390 ,0,0,0.,1.2,86.,1.2,1.,1.2,0.,1.2
1979-07-28 21:00:59.590 ,0,0,2.,1.2,90.,1.2,0.,1.2,0.,1.2
1979-07-28 21:01:00.790 ,0,0,0.,1.2,104.,1.2,0.,1.2,0.,1.2
1979-07-28 21:01:01.990 ,0,0,0.,1.2,98.,1.2,0.,1.2,0.,1.2
1979-07-28 21:01:03.190 ,0,0,1.,1.2,102.,1.2,0.,1.2,0.,1.2
1979-07-28 21:01:04.390 ,0,0,0.,1.2,86.,1.2,0.,1.2,0.,1.2
1979-07-28 21:01:05.590 ,0,0,0.,1.2,96.,1.2,0.,1.2,0.,1.2
1979-07-28 21:01:06.790 ,0,0,0.,1.2,106.,1.2,0.,1.2,0.,1.2
1979-07-28 21:01:07.990 ,0,0,0.,1.2,96.,1.2,0.,1.2,0.,1.2
1979-07-28 21:01:09.190 ,0,0,0.,1.2,90.,1.2,0.,1.2,0.,1.2
1979-07-28 21:01:10.390 ,0,0,0.,1.2,100.,1.2,0.,1.2,0.,1.2
1979-07-28 21:01:11.590 ,0,0,1.,1.2,90.,1.2,0.,1.2,0.,1.2
1979-07-28 21:01:12.790 ,0,0,1.,1.2,98.,1.2,0.,1.2,0.,1.2
1979-07-28 21:01:13.990 ,0,0,1.,1.2,102.,1.2,0.,1.2,0.,1.2
1979-07-28 21:01:15.190 ,0,0,0.,1.2,104.,1.2,0.,1.2,0.,1.2
1979-07-28 21:01:16.390 ,0,0,0.,1.2,92.,1.2,0.,1.2,0.,1.2
1979-07-28 21:01:17.590 ,0,0,1.,1.2,112.,1.2,0.,1.2,0.,1.2
1979-07-28 21:01:18.790 ,0,0,0.,1.2,96.,1.2,0.,1.2,0.,1.2
1979-07-28 21:01:19.990 ,0,0,0.,1.2,102.,1.2,0.,1.2,0.,1.2
1979-07-28 21:01:21.190 ,0,0,0.,1.2,90.,1.2,0.,1.2,0.,1.2
1979-07-28 21:01:22.390 ,0,0,0.,1.2,102.,1.2,0.,1.2,0.,1.2
1979-07-28 21:01:23.590 ,0,0,0.,1.2,86.,1.2,0.,1.2,0.,1.2
1979-07-28 21:01:24.790 ,0,0,0.,1.2,80.,1.2,0.,1.2,0.,1.2
1979-07-28 21:01:25.990 ,0,0,1.,1.2,80.,1.2,0.,1.2,0.,1.2
1979-07-28 21:01:27.190 ,0,0,1.,1.2,88.,1.2,0.,1.2,0.,1.2
1979-07-28 21:01:28.390 ,0,0,0.,1.2,102.,1.2,0.,1.2,0.,1.2
1979-07-28 21:01:29.590 ,0,0,1.,1.2,98.,1.2,0.,1.2,0.,1.2
1979-07-28 21:01:30.790 ,0,0,1.,1.2,108.,1.2,0.,1.2,0.,1.2
1979-07-28 21:01:31.990 ,0,0,1.,1.2,102.,1.2,0.,1.2,0.,1.2
1979-07-28 21:01:33.190 ,0,0,1.,1.2,108.,1.2,0.,1.2,0.,1.2
1979-07-28 21:01:34.390 ,1,0,0.,1.2,92.,1.2,0.,1.2,0.,1.2
1979-07-28 21:01:35.590 ,1,0,1.,1.2,78.,1.2,0.,1.2,0.,1.2
1979-07-28 21:01:36.790 ,1,0,1.,1.2,96.,1.2,0.,1.2,0.,1.2
1979-07-28 21:01:37.990 ,1,0,0.,1.2,102.,1.2,0.,1.2,0.,1.2
1979-07-28 21:01:39.190 ,1,0,0.,1.2,92.,1.2,0.,1.2,0.,1.2
1979-07-28 21:01:40.390 ,1,0,0.,1.2,248.,1.2,0.,1.2,0.,1.2
1979-07-28 21:01:41.590 ,1,0,1.,1.2,94.,1.2,0.,1.2,0.,1.2
1979-07-28 21:01:42.790 ,1,0,0.,1.2,96.,1.2,0.,1.2,0.,1.2
1979-07-28 21:01:43.990 ,1,0,1.,1.2,88.,1.2,0.,1.2,0.,1.2
1979-07-28 21:01:45.190 ,1,0,1.,1.2,98.,1.2,0.,1.2,0.,1.2
1979-07-28 21:01:46.390 ,1,0,1.,1.2,98.,1.2,0.,1.2,0.,1.2
1979-07-28 21:01:47.590 ,1,0,1.,1.2,98.,1.2,0.,1.2,0.,1.2
1979-07-28 21:01:48.790 ,1,0,0.,1.2,100.,1.2,0.,1.2,0.,1.2
1979-07-28 21:01:49.990 ,1,0,0.,1.2,80.,1.2,0.,1.2,0.,1.2
1979-07-28 21:01:51.190 ,1,0,1.,1.2,96.,1.2,0.,1.2,0.,1.2
1979-07-28 21:01:52.390 ,1,0,1.,1.2,90.,1.2,0.,1.2,0.,1.2
1979-07-28 21:01:53.590 ,1,0,0.,1.2,96.,1.2,0.,1.2,0.,1.2
1979-07-28 21:01:54.790 ,1,0,0.,1.2,104.,1.2,0.,1.2,0.,1.2
1979-07-28 21:01:55.990 ,1,0,0.,1.2,108.,1.2,0.,1.2,0.,1.2
1979-07-28 21:01:57.190 ,1,0,1.,1.2,80.,1.2,0.,1.2,0.,1.2
1979-07-28 21:01:58.390 ,1,0,0.,1.2,80.,1.2,0.,1.2,0.,1.2
1979-07-28 21:01:59.590 ,1,0,1.,1.2,94.,1.2,0.,1.2,0.,1.2
1979-07-28 21:02:00.790 ,1,0,1.,1.2,100.,1.2,0.,1.2,0.,1.2
1979-07-28 21:02:01.990 ,1,0,1.,1.2,100.,1.2,0.,1.2,0.,1.2
1979-07-28 21:02:03.190 ,1,0,0.,1.2,90.,1.2,0.,1.2,0.,1.2
1979-07-28 21:02:04.390 ,1,0,2.,1.2,108.,1.2,0.,1.2,0.,1.2
1979-07-28 21:02:05.590 ,1,0,3.,1.2,88.,1.2,0.,1.2,0.,1.2
1979-07-28 21:02:06.790 ,1,0,0.,1.2,86.,1.2,0.,1.2,0.,1.2
1979-07-28 21:02:07.990 ,1,0,0.,1.2,102.,1.2,0.,1.2,0.,1.2
1979-07-28 21:02:09.190 ,1,0,0.,1.2,94.,1.2,0.,1.2,0.,1.2
1979-07-28 21:02:10.390 ,1,0,0.,1.2,102.,1.2,1.,1.2,0.,1.2
1979-07-28 21:02:11.590 ,1,0,2.,1.2,114.,1.2,0.,1.2,0.,1.2
1979-07-28 21:02:12.790 ,1,0,0.,1.2,76.,1.2,0.,1.2,0.,1.2
1979-07-28 21:02:13.990 ,1,0,0.,1.2,118.,1.2,0.,1.2,0.,1.2
1979-07-28 21:02:15.190 ,1,0,0.,1.2,106.,1.2,0.,1.2,0.,1.2
1979-07-28 21:02:16.390 ,1,0,2.,1.2,86.,1.2,0.,1.2,0.,1.2
1979-07-28 21:02:17.590 ,1,0,1.,1.2,98.,1.2,0.,1.2,0.,1.2
1979-07-28 21:02:18.790 ,1,0,0.,1.2,108.,1.2,0.,1.2,0.,1.2
1979-07-28 21:02:19.990 ,1,0,0.,1.2,94.,1.2,0.,1.2,0.,1.2
1979-07-28 21:02:21.190 ,1,0,0.,1.2,96.,1.2,0.,1.2,0.,1.2
1979-07-28 21:02:22.390 ,2,0,0.,1.2,110.,1.2,0.,1.2,0.,1.2
1979-07-28 21:02:23.590 ,2,0,0.,1.2,96.,1.2,0.,1.2,0.,1.2
1979-07-28 21:02:24.790 ,2,0,0.,1.2,100.,1.2,0.,1.2,0.,1.2
1979-07-28 21:02:25.990 ,2,0,0.,1.2,112.,1.2,0.,1.2,0.,1.2
1979-07-28 21:02:27.190 ,2,0,1.,1.2,122.,1.2,0.,1.2,0.,1.2
1979-07-28 21:02:28.390 ,2,0,1.,1.2,288.,1.2,0.,1.2,0.,1.2
1979-07-28 21:02:29.590 ,2,0,0.,1.2,94.,1.2,0.,1.2,0.,1.2
1979-07-28 21:02:30.790 ,2,0,2.,1.2,94.,1.2,0.,1.2,0.,1.2
1979-07-28 21:02:31.990 ,2,0,0.,1.2,96.,1.2,0.,1.2,0.,1.2
1979-07-28 21:02:33.190 ,2,0,0.,1.2,98.,1.2,0.,1.2,0.,1.2
1979-07-28 21:02:34.390 ,2,0,0.,1.2,82.,1.2,0.,1.2,0.,1.2
1979-07-28 21:02:35.590 ,2,0,0.,1.2,104.,1.2,0.,1.2,0.,1.2
1979-07-28 21:02:36.790 ,2,0,1.,1.2,86.,1.2,0.,1.2,0.,1.2
1979-07-28 21:02:37.990 ,2,0,0.,1.2,74.,1.2,0.,1.2,0.,1.2
1979-07-28 21:02:39.190 ,2,0,1.,1.2,108.,1.2,0.,1.2,0.,1.2
1979-07-28 21:02:40.390 ,2,0,2.,1.2,96.,1.2,0.,1.2,0.,1.2
1979-07-28 21:02:41.590 ,2,0,0.,1.2,94.,1.2,0.,1.2,0.,1.2
1979-07-28 21:02:42.790 ,2,0,0.,1.2,100.,1.2,0.,1.2,0.,1.2
1979-07-28 21:02:43.990 ,2,0,0.,1.2,84.,1.2,0.,1.2,0.,1.2
1979-07-28 21:02:45.190 ,2,0,1.,1.2,100.,1.2,0.,1.2,0.,1.2
1979-07-28 21:02:46.390 ,2,0,1.,1.2,86.,1.2,0.,1.2,0.,1.2
1979-07-28 21:02:47.590 ,2,0,0.,1.2,98.,1.2,0.,1.2,0.,1.2
1979-07-28 21:02:48.790 ,2,0,0.,1.2,100.,1.2,0.,1.2,0.,1.2
1979-07-28 21:02:49.990 ,2,0,1.,1.2,112.,1.2,0.,1.2,0.,1.2
1979-07-28 21:02:51.190 ,2,0,1.,1.2,82.,1.2,0.,1.2,0.,1.2
1979-07-28 21:02:52.390 ,2,0,0.,1.2,86.,1.2,0.,1.2,0.,1.2
1979-07-28 21:02:53.590 ,2,0,1.,1.2,92.,1.2,1.,1.2,0.,1.2
1979-07-28 21:02:54.790 ,2,0,2.,1.2,92.,1.2,0.,1.2,0.,1.2
1979-07-28 21:02:55.990 ,2,0,1.,1.2,102.,1.2,0.,1.2,0.,1.2
1979-07-28 21:02:57.190 ,2,0,1.,1.2,108.,1.2,0.,1.2,0.,1.2
1979-07-28 21:02:58.390 ,2,0,1.,1.2,102.,1.2,0.,1.2,0.,1.2
1979-07-28 21:02:59.590 ,2,0,1.,1.2,104.,1.2,0.,1.2,0.,1.2
1979-07-28 21:03:00.790 ,2,0,0.,1.2,112.,1.2,0.,1.2,0.,1.2
1979-07-28 21:03:01.990 ,2,0,1.,1.2,102.,1.2,0.,1.2,0.,1.2
1979-07-28 21:03:03.190 ,2,0,0.,1.2,102.,1.2,0.,1.2,0.,1.2
1979-07-28 21:03:04.390 ,2,0,0.,1.2,86.,1.2,0.,1.2,0.,1.2
1979-07-28 21:03:05.590 ,2,0,1.,1.2,92.,1.2,0.,1.2,0.,1.2
1979-07-28 21:03:06.790 ,2,0,1.,1.2,90.,1.2,0.,1.2,0.,1.2
1979-07-28 21:03:07.990 ,2,0,1.,1.2,104.,1.2,0.,1.2,0.,1.2
1979-07-28 21:03:09.190 ,2,0,1.,1.2,122.,1.2,0.,1.2,0.,1.2
1979-07-28 21:03:10.390 ,3,0,1.,1.2,102.,1.2,0.,1.2,0.,1.2
1979-07-28 21:03:11.590 ,3,0,1.,1.2,88.,1.2,0.,1.2,0.,1.2
1979-07-28 21:03:12.790 ,3,0,1.,1.2,92.,1.2,0.,1.2,0.,1.2
1979-07-28 21:03:13.990 ,3,0,0.,1.2,106.,1.2,0.,1.2,0.,1.2
1979-07-28 21:03:15.190 ,3,0,1.,1.2,102.,1.2,0.,1.2,0.,1.2
1979-07-28 21:03:16.390 ,3,0,0.,1.2,256.,1.2,0.,1.2,0.,1.2
1979-07-28 21:03:17.590 ,3,0,1.,1.2,44.,1.2,0.,1.2,0.,1.2
1979-07-28 21:03:18.790 ,3,0,1.,1.2,34.,1.2,0.,1.2,0.,1.2
1979-07-28 21:03:19.990 ,3,0,0.,1.2,45.,1.2,0.,1.2,0.,1.2
1979-07-28 21:03:21.190 ,3,0,1.,1.2,62.,1.2,0.,1.2,0.,1.2
1979-07-28 21:03:22.390 ,3,0,1.,1.2,52.,1.2,0.,1.2,0.,1.2
1979-07-28 21:03:23.590 ,3,0,1.,1.2,46.,1.2,0.,1.2,0.,1.2
1979-07-28 21:03:24.790 ,3,0,0.,1.2,49.,1.2,0.,1.2,0.,1.2
1979-07-28 21:03:25.990 ,3,0,2.,1.2,64.,1.2,0.,1.2,0.,1.2
1979-07-28 21:03:27.190 ,3,0,0.,1.2,50.,1.2,0.,1.2,0.,1.2
1979-07-28 21:03:28.390 ,3,0,0.,1.2,52.,1.2,0.,1.2,0.,1.2
1979-07-28 21:03:29.590 ,3,0,0.,1.2,45.,1.2,0.,1.2,0.,1.2
1979-07-28 21:03:30.790 ,3,0,1.,1.2,47.,1.2,0.,1.2,0.,1.2
1979-07-28 21:03:31.990 ,3,0,2.,1.2,43.,1.2,0.,1.2,0.,1.2
1979-07-28 21:03:33.190 ,3,0,0.,1.2,54.,1.2,0.,1.2,0.,1.2
1979-07-28 21:03:34.390 ,3,0,0.,1.2,46.,1.2,0.,1.2,0.,1.2
1979-07-28 21:03:35.590 ,3,0,0.,1.2,51.,1.2,0.,1.2,0.,1.2
1979-07-28 21:03:36.790 ,3,0,1.,1.2,48.,1.2,0.,1.2,0.,1.2
1979-07-28 21:03:37.990 ,3,0,4.,1.2,47.,1.2,0.,1.2,0.,1.2
1979-07-28 21:03:39.190 ,3,0,0.,1.2,59.,1.2,0.,1.2,0.,1.2
1979-07-28 21:03:40.390 ,3,0,1.,1.2,45.,1.2,0.,1.2,0.,1.2
1979-07-28 21:03:41.590 ,3,0,0.,1.2,49.,1.2,0.,1.2,0.,1.2
1979-07-28 21:03:42.790 ,3,0,0.,1.2,57.,1.2,0.,1.2,0.,1.2
1979-07-28 21:03:43.990 ,3,0,2.,1.2,50.,1.2,0.,1.2,0.,1.2
1979-07-28 21:03:45.190 ,3,0,0.,1.2,49.,1.2,0.,1.2,0.,1.2
1979-07-28 21:03:46.390 ,3,0,0.,1.2,52.,1.2,0.,1.2,0.,1.2
1979-07-28 21:03:47.590 ,3,0,1.,1.2,51.,1.2,0.,1.2,0.,1.2
1979-07-28 21:03:48.790 ,3,0,1.,1.2,44.,1.2,0.,1.2,0.,1.2
1979-07-28 21:03:49.990 ,3,0,0.,1.2,45.,1.2,0.,1.2,0.,1.2
1979-07-28 21:03:51.190 ,3,0,0.,1.2,51.,1.2,0.,1.2,0.,1.2
1979-07-28 21:03:52.390 ,3,0,0.,1.2,39.,1.2,0.,1.2,0.,1.2
1979-07-28 21:03:53.590 ,3,0,0.,1.2,49.,1.2,0.,1.2,0.,1.2
1979-07-28 21:03:54.790 ,3,0,0.,1.2,44.,1.2,0.,1.2,0.,1.2
1979-07-28 21:03:55.990 ,3,0,2.,1.2,51.,1.2,0.,1.2,0.,1.2
1979-07-28 21:03:57.190 ,3,0,2.,1.2,55.,1.2,0.,1.2,0.,1.2
1979-07-28 21:03:58.390 ,4,0,0.,1.2,57.,1.2,0.,1.2,0.,1.2
1979-07-28 21:03:59.590 ,4,0,0.,1.2,52.,1.2,0.,1.2,0.,1.2
1979-07-28 21:04:00.790 ,4,0,0.,1.2,48.,1.2,0.,1.2,0.,1.2
1979-07-28 21:04:01.990 ,4,0,0.,1.2,34.,1.2,0.,1.2,0.,1.2
1979-07-28 21:04:03.190 ,4,0,2.,1.2,38.,1.2,0.,1.2,0.,1.2
1979-07-28 21:04:04.390 ,4,0,0.,1.2,236.,1.2,0.,1.2,0.,1.2
1979-07-28 21:04:05.590 ,4,0,0.,1.2,128.,1.2,0.,1.2,1.,1.2
1979-07-28 21:04:06.790 ,4,0,0.,1.2,112.,1.2,0.,1.2,0.,1.2
1979-07-28 21:04:07.990 ,4,0,0.,1.2,124.,1.2,0.,1.2,0.,1.2
1979-07-28 21:04:09.190 ,4,0,2.,1.2,122.,1.2,0.,1.2,0.,1.2
1979-07-28 21:04:10.390 ,4,0,0.,1.2,118.,1.2,0.,1.2,0.,1.2
1979-07-28 21:04:11.590 ,4,0,0.,1.2,140.,1.2,0.,1.2,0.,1.2
1979-07-28 21:04:12.790 ,4,0,1.,1.2,92.,1.2,0.,1.2,0.,1.2
1979-07-28 21:04:13.990 ,4,0,0.,1.2,126.,1.2,0.,1.2,0.,1.2
1979-07-28 21:04:15.190 ,4,0,0.,1.2,110.,1.2,1.,1.2,0.,1.2
1979-07-28 21:04:16.390 ,4,0,0.,1.2,112.,1.2,0.,1.2,0.,1.2
1979-07-28 21:04:17.590 ,4,0,1.,1.2,128.,1.2,0.,1.2,0.,1.2
1979-07-28 21:04:18.790 ,4,0,0.,1.2,118.,1.2,0.,1.2,0.,1.2
1979-07-28 21:04:19.990 ,4,0,1.,1.2,140.,1.2,0.,1.2,0.,1.2
1979-07-28 21:04:21.190 ,4,0,1.,1.2,108.,1.2,0.,1.2,0.,1.2
1979-07-28 21:04:22.390 ,4,0,1.,1.2,98.,1.2,0.,1.2,0.,1.2
1979-07-28 21:04:23.590 ,4,0,1.,1.2,112.,1.2,0.,1.2,0.,1.2
1979-07-28 21:04:24.790 ,4,0,0.,1.2,102.,1.2,0.,1.2,0.,1.2
1979-07-28 21:04:25.990 ,4,0,0.,1.2,124.,1.2,0.,1.2,0.,1.2
1979-07-28 21:04:27.190 ,4,0,0.,1.2,114.,1.2,0.,1.2,0.,1.2
1979-07-28 21:04:28.390 ,4,0,0.,1.2,102.,1.2,0.,1.2,0.,1.2
1979-07-28 21:04:29.590 ,4,0,0.,1.2,116.,1.2,0.,1.2,0.,1.2
1979-07-28 21:04:30.790 ,4,0,1.,1.2,110.,1.2,0.,1.2,1.,1.2
1979-07-28 21:04:31.990 ,4,0,1.,1.2,132.,1.2,0.,1.2,0.,1.2
1979-07-28 21:04:33.190 ,4,0,0.,1.2,124.,1.2,0.,1.2,0.,1.2
1979-07-28 21:04:34.390 ,4,0,0.,1.2,120.,1.2,0.,1.2,0.,1.2
1979-07-28 21:04:35.590 ,4,0,0.,1.2,128.,1.2,0.,1.2,0.,1.2
1979-07-28 21:04:36.790 ,4,0,1.,1.2,136.,1.2,0.,1.2,0.,1.2
1979-07-28 21:04:37.990 ,4,0,1.,1.2,126.,1.2,0.,1.2,0.,1.2
1979-07-28 21:04:39.190 ,4,0,0.,1.2,144.,1.2,0.,1.2,0.,1.2
1979-07-28 21:04:40.390 ,4,0,2.,1.2,148.,1.2,0.,1.2,0.,1.2
1979-07-28 21:04:41.590 ,4,0,0.,1.2,128.,1.2,0.,1.2,0.,1.2
1979-07-28 21:04:42.790 ,4,0,0.,1.2,148.,1.2,0.,1.2,0.,1.2
1979-07-28 21:04:43.990 ,4,0,0.,1.2,132.,1.2,0.,1.2,0.,1.2
1979-07-28 21:04:45.190 ,4,0,1.,1.2,156.,1.2,0.,1.2,0.,1.2
1979-07-28 21:04:46.390 ,5,0,0.,1.2,152.,1.2,0.,1.2,0.,1.2
1979-07-28 21:04:47.590 ,5,0,1.,1.2,148.,1.2,0.,1.2,0.,1.2
1979-07-28 21:04:48.790 ,5,0,1.,1.2,128.,1.2,0.,1.2,0.,1.2
1979-07-28 21:04:49.990 ,5,0,1.,1.2,120.,1.2,0.,1.2,0.,1.2
1979-07-28 21:04:51.190 ,5,0,0.,1.2,168.,1.2,0.,1.2,0.,1.2
1979-07-28 21:04:52.390 ,5,0,2.,1.2,272.,1.2,0.,1.2,0.,1.2
1979-07-28 21:04:53.590 ,5,0,0.,1.2,118.,1.2,0.,1.2,0.,1.2
1979-07-28 21:04:54.790 ,5,0,1.,1.2,118.,1.2,0.,1.2,0.,1.2
1979-07-28 21:04:55.990 ,5,0,1.,1.2,132.,1.2,0.,1.2,0.,1.2
1979-07-28 21:04:57.190 ,5,0,1.,1.2,148.,1.2,0.,1.2,0.,1.2
1979-07-28 21:04:58.390 ,5,0,0.,1.2,116.,1.2,0.,1.2,0.,1.2
1979-07-28 21:04:59.590 ,5,0,1.,1.2,132.,1.2,0.,1.2,0.,1.2
1979-07-28 21:05:00.790 ,5,0,1.,1.2,118.,1.2,0.,1.2,0.,1.2
1979-07-28 21:05:01.990 ,5,0,1.,1.2,132.,1.2,0.,1.2,0.,1.2
1979-07-28 21:05:03.190 ,5,0,1.,1.2,122.,1.2,0.,1.2,0.,1.2
1979-07-28 21:05:04.390 ,5,0,0.,1.2,116.,1.2,0.,1.2,0.,1.2
1979-07-28 21:05:05.590 ,5,0,0.,1.2,118.,1.2,0.,1.2,0.,1.2
1979-07-28 21:05:06.790 ,5,0,0.,1.2,128.,1.2,0.,1.2,0.,1.2
1979-07-28 21:05:07.990 ,5,0,0.,1.2,112.,1.2,0.,1.2,0.,1.2
1979-07-28 21:05:09.190 ,5,0,1.,1.2,110.,1.2,0.,1.2,0.,1.2
1979-07-28 21:05:10.390 ,5,0,0.,1.2,122.,1.2,0.,1.2,0.,1.2
1979-07-28 21:05:11.590 ,5,0,0.,1.2,96.,1.2,0.,1.2,0.,1.2
1979-07-28 21:05:12.790 ,5,0,0.,1.2,118.,1.2,0.,1.2,0.,1.2
1979-07-28 21:05:13.990 ,5,0,0.,1.2,120.,1.2,0.,1.2,0.,1.2
1979-07-28 21:05:15.190 ,5,0,1.,1.2,136.,1.2,0.,1.2,0.,1.2
1979-07-28 21:05:16.390 ,5,0,0.,1.2,120.,1.2,0.,1.2,0.,1.2
1979-07-28 21:05:17.590 ,5,0,0.,1.2,128.,1.2,0.,1.2,0.,1.2
1979-07-28 21:05:18.790 ,5,0,0.,1.2,110.,1.2,0.,1.2,0.,1.2
1979-07-28 21:05:19.990 ,5,0,1.,1.2,132.,1.2,0.,1.2,0.,1.2
1979-07-28 21:05:21.190 ,5,0,0.,1.2,124.,1.2,0.,1.2,0.,1.2
1979-07-28 21:05:22.390 ,5,0,0.,1.2,106.,1.2,0.,1.2,0.,1.2
1979-07-28 21:05:23.590 ,5,0,1.,1.2,118.,1.2,0.,1.2,0.,1.2
1979-07-28 21:05:24.790 ,5,0,0.,1.2,136.,1.2,0.,1.2,0.,1.2
1979-07-28 21:05:25.990 ,5,0,0.,1.2,118.,1.2,0.,1.2,0.,1.2
1979-07-28 21:05:27.190 ,5,0,0.,1.2,104.,1.2,0.,1.2,0.,1.2
1979-07-28 21:05:28.390 ,5,0,0.,1.2,114.,1.2,1.,1.2,0.,1.2
1979-07-28 21:05:29.590 ,5,0,0.,1.2,114.,1.2,0.,1.2,0.,1.2
1979-07-28 21:05:30.790 ,5,0,0.,1.2,120.,1.2,0.,1.2,0.,1.2
1979-07-28 21:05:31.990 ,5,0,0.,1.2,86.,1.2,0.,1.2,0.,1.2
1979-07-28 21:05:33.190 ,5,0,0.,1.2,106.,1.2,0.,1.2,0.,1.2
1979-07-28 21:05:34.390 ,6,0,0.,1.2,124.,1.2,0.,1.2,0.,1.2
1979-07-28 21:05:35.590 ,6,0,0.,1.2,136.,1.2,0.,1.2,0.,1.2
1979-07-28 21:05:36.790 ,6,0,0.,1.2,148.,1.2,0.,1.2,0.,1.2
1979-07-28 21:05:37.990 ,6,0,0.,1.2,112.,1.2,0.,1.2,1.,1.2
1979-07-28 21:05:39.190 ,6,0,0.,1.2,122.,1.2,0.,1.2,0.,1.2
1979-07-28 21:05:40.390 ,6,0,1.,1.2,320.,1.2,0.,1.2,0.,1.2
1979-07-28 21:05:41.590 ,6,0,0.,1.2,120.,1.2,0.,1.2,0.,1.2
1979-07-28 21:05:42.790 ,6,0,0.,1.2,118.,1.2,0.,1.2,0.,1.2
1979-07-28 21:05:43.990 ,6,0,2.,1.2,126.,1.2,1.,1.2,0.,1.2
1979-07-28 21:05:45.190 ,6,0,1.,1.2,114.,1.2,0.,1.2,0.,1.2
1979-07-28 21:05:46.390 ,6,0,0.,1.2,124.,1.2,0.,1.2,0.,1.2
1979-07-28 21:05:47.590 ,6,0,0.,1.2,112.,1.2,0.,1.2,0.,1.2
1979-07-28 21:05:48.790 ,6,0,1.,1.2,114.,1.2,0.,1.2,0.,1.2
1979-07-28 21:05:49.990 ,6,0,0.,1.2,116.,1.2,0.,1.2,0.,1.2
1979-07-28 21:05:51.190 ,6,0,1.,1.2,98.,1.2,0.,1.2,0.,1.2
1979-07-28 21:05:52.390 ,6,0,0.,1.2,132.,1.2,0.,1.2,0.,1.2
1979-07-28 21:05:53.590 ,6,0,1.,1.2,116.,1.2,0.,1.2,0.,1.2
1979-07-28 21:05:54.790 ,6,0,1.,1.2,124.,1.2,0.,1.2,0.,1.2
1979-07-28 21:05:55.990 ,6,0,0.,1.2,114.,1.2,0.,1.2,0.,1.2
1979-07-28 21:05:57.190 ,6,0,0.,1.2,106.,1.2,0.,1.2,0.,1.2
1979-07-28 21:05:58.390 ,6,0,0.,1.2,122.,1.2,0.,1.2,0.,1.2
1979-07-28 21:05:59.590 ,6,0,0.,1.2,106.,1.2,0.,1.2,0.,1.2
1979-07-28 21:06:00.790 ,6,0,0.,1.2,114.,1.2,0.,1.2,0.,1.2
1979-07-28 21:06:01.990 ,6,0,2.,1.2,112.,1.2,0.,1.2,0.,1.2
1979-07-28 21:06:03.190 ,6,0,0.,1.2,126.,1.2,0.,1.2,0.,1.2
1979-07-28 21:06:04.390 ,6,0,0.,1.2,120.,1.2,0.,1.2,0.,1.2
1979-07-28 21:06:05.590 ,6,0,0.,1.2,104.,1.2,0.,1.2,0.,1.2
1979-07-28 21:06:06.790 ,6,0,0.,1.2,136.,1.2,0.,1.2,0.,1.2
1979-07-28 21:06:07.990 ,6,0,1.,1.2,102.,1.2,0.,1.2,0.,1.2
1979-07-28 21:06:09.190 ,6,0,0.,1.2,120.,1.2,0.,1.2,0.,1.2
1979-07-28 21:06:10.390 ,6,0,1.,1.2,140.,1.2,0.,1.2,0.,1.2
1979-07-28 21:06:11.590 ,6,0,0.,1.2,112.,1.2,0.,1.2,0.,1.2
1979-07-28 21:06:12.790 ,6,0,0.,1.2,118.,1.2,0.,1.2,0.,1.2
1979-07-28 21:06:13.990 ,6,0,3.,1.2,116.,1.2,0.,1.2,0.,1.2
1979-07-28 21:06:15.190 ,6,0,0.,1.2,114.,1.2,0.,1.2,0.,1.2
1979-07-28 21:06:16.390 ,6,0,0.,1.2,114.,1.2,0.,1.2,0.,1.2
1979-07-28 21:06:17.590 ,6,0,0.,1.2,100.,1.2,0.,1.2,0.,1.2
1979-07-28 21:06:18.790 ,6,0,0.,1.2,88.,1.2,0.,1.2,0.,1.2
1979-07-28 21:06:19.990 ,6,0,1.,1.2,100.,1.2,0.,1.2,0.,1.2
1979-07-28 21:06:21.190 ,6,0,0.,1.2,114.,1.2,0.,1.2,0.,1.2
1979-07-28 21:06:22.390 ,7,0,1.,1.2,104.,1.2,0.,1.2,0.,1.2
1979-07-28 21:06:23.590 ,7,0,1.,1.2,98.,1.2,0.,1.2,0.,1.2
1979-07-28 21:06:24.790 ,7,0,0.,1.2,118.,1.2,0.,1.2,0.,1.2
1979-07-28 21:06:25.990 ,7,0,1.,1.2,110.,1.2,0.,1.2,0.,1.2
1979-07-28 21:06:27.190 ,7,0,1.,1.2,118.,1.2,0.,1.2,0.,1.2
1979-07-28 21:06:28.390 ,7,0,0.,1.2,264.,1.2,1.,1.2,0.,1.2
1979-07-28 21:06:29.590 ,7,0,0.,1.2,118.,1.2,5.,1.2,0.,1.2
1979-07-28 21:06:30.790 ,7,0,0.,1.2,120.,1.2,4.,1.2,0.,1.2
1979-07-28 21:06:31.990 ,7,0,0.,1.2,128.,1.2,12.,1.2,0.,1.2
1979-07-28 21:06:33.190 ,7,0,0.,1.2,98.,1.2,3.,1.2,0.,1.2
1979-07-28 21:06:34.390 ,7,0,0.,1.2,114.,1.2,4.,1.2,0.,1.2
1979-07-28 21:06:35.590 ,7,0,0.,1.2,118.,1.2,4.,1.2,0.,1.2
1979-07-28 21:06:36.790 ,7,0,0.,1.2,124.,1.2,4.,1.2,0.,1.2
1979-07-28 21:06:37.990 ,7,0,0.,1.2,120.,1.2,7.,1.2,0.,1.2
1979-07-28 21:06:39.190 ,7,0,0.,1.2,100.,1.2,7.,1.2,0.,1.2
1979-07-28 21:06:40.390 ,7,0,0.,1.2,122.,1.2,3.,1.2,0.,1.2
1979-07-28 21:06:41.590 ,7,0,0.,1.2,124.,1.2,2.,1.2,0.,1.2
1979-07-28 21:06:42.790 ,7,0,0.,1.2,116.,1.2,3.,1.2,1.,1.2
1979-07-28 21:06:43.990 ,7,0,0.,1.2,126.,1.2,3.,1.2,0.,1.2
1979-07-28 21:06:45.190 ,7,0,0.,1.2,128.,1.2,3.,1.2,0.,1.2
1979-07-28 21:06:46.390 ,7,0,0.,1.2,126.,1.2,5.,1.2,0.,1.2
1979-07-28 21:06:47.590 ,7,0,0.,1.2,126.,1.2,3.,1.2,0.,1.2
1979-07-28 21:06:48.790 ,7,0,0.,1.2,110.,1.2,5.,1.2,0.,1.2
1979-07-28 21:06:49.990 ,7,0,0.,1.2,124.,1.2,6.,1.2,0.,1.2
1979-07-28 21:06:51.190 ,7,0,0.,1.2,104.,1.2,7.,1.2,0.,1.2
1979-07-28 21:06:52.390 ,7,0,0.,1.2,122.,1.2,3.,1.2,0.,1.2
1979-07-28 21:06:53.590 ,7,0,0.,1.2,116.,1.2,5.,1.2,0.,1.2
1979-07-28 21:06:54.790 ,7,0,0.,1.2,104.,1.2,2.,1.2,0.,1.2
1979-07-28 21:06:55.990 ,7,0,0.,1.2,110.,1.2,6.,1.2,0.,1.2
1979-07-28 21:06:57.190 ,7,0,0.,1.2,126.,1.2,6.,1.2,0.,1.2
1979-07-28 21:06:58.390 ,7,0,0.,1.2,112.,1.2,5.,1.2,0.,1.2
1979-07-28 21:06:59.590 ,7,0,0.,1.2,126.,1.2,8.,1.2,0.,1.2
1979-07-28 21:07:00.790 ,7,0,0.,1.2,122.,1.2,7.,1.2,0.,1.2
1979-07-28 21:07:01.990 ,7,0,1.,1.2,126.,1.2,8.,1.2,0.,1.2
1979-07-28 21:07:03.190 ,7,0,0.,1.2,126.,1.2,6.,1.2,0.,1.2
1979-07-28 21:07:04.390 ,7,0,0.,1.2,118.,1.2,6.,1.2,0.,1.2
1979-07-28 21:07:05.590 ,7,0,0.,1.2,120.,1.2,7.,1.2,0.,1.2
1979-07-28 21:07:06.790 ,7,0,0.,1.2,118.,1.2,7.,1.2,0.,1.2
1979-07-28 21:07:07.990 ,7,0,0.,1.2,122.,1.2,8.,1.2,0.,1.2
1979-07-28 21:07:09.190 ,7,0,0.,1.2,128.,1.2,5.,1.2,0.,1.2
1979-07-28 21:07:10.390 ,3,0,1.,1.2,280.,1.2,6.,1.2,0.,1.2
1979-07-28 21:07:11.590 ,3,0,0.,1.2,114.,1.2,0.,1.2,0.,1.2
1979-07-28 21:07:12.790 ,3,0,0.,1.2,114.,1.2,0.,1.2,0.,1.2
1979-07-28 21:07:13.990 ,3,0,0.,1.2,108.,1.2,0.,1.2,0.,1.2
1979-07-28 21:07:15.190 ,3,0,1.,1.2,122.,1.2,0.,1.2,0.,1.2
1979-07-28 21:07:16.390 ,3,0,0.,1.2,196.,1.2,0.,1.2,0.,1.2
1979-07-28 21:07:17.590 ,3,0,1.,1.2,118.,1.2,0.,1.2,0.,1.2
1979-07-28 21:07:18.790 ,3,0,1.,1.2,126.,1.2,0.,1.2,1.,1.2
1979-07-28 21:07:19.990 ,3,0,0.,1.2,106.,1.2,0.,1.2,0.,1.2
1979-07-28 21:07:21.190 ,3,0,0.,1.2,112.,1.2,0.,1.2,0.,1.2
1979-07-28 21:07:22.390 ,3,0,0.,1.2,212.,1.2,1.,1.2,0.,1.2
1979-07-28 21:07:23.590 ,3,0,0.,1.2,104.,1.2,0.,1.2,0.,1.2
1979-07-28 21:07:24.790 ,3,0,0.,1.2,110.,1.2,0.,1.2,0.,1.2
1979-07-28 21:07:25.990 ,3,0,0.,1.2,110.,1.2,0.,1.2,0.,1.2
1979-07-28 21:07:27.190 ,3,0,0.,1.2,118.,1.2,0.,1.2,0.,1.2
1979-07-28 21:07:28.390 ,3,0,0.,1.2,244.,1.2,0.,1.2,0.,1.2
1979-07-28 21:07:29.590 ,3,0,0.,1.2,48.,1.2,0.,1.2,0.,1.2
1979-07-28 21:07:30.790 ,3,0,1.,1.2,46.,1.2,0.,1.2,0.,1.2
1979-07-28 21:07:31.990 ,3,0,0.,1.2,46.,1.2,0.,1.2,0.,1.2
1979-07-28 21:07:33.190 ,3,0,0.,1.2,46.,1.2,0.,1.2,0.,1.2
1979-07-28 21:07:34.390 ,0,0,0.,1.2,224.,1.2,0.,1.2,0.,1.2
1979-07-28 21:07:35.590 ,0,0,0.,1.2,102.,1.2,0.,1.2,0.,1.2
1979-07-28 21:07:36.790 ,0,0,0.,1.2,92.,1.2,0.,1.2,0.,1.2
1979-07-28 21:07:37.990 ,0,0,0.,1.2,94.,1.2,0.,1.2,0.,1.2
1979-07-28 21:07:39.190 ,0,0,1.,1.2,100.,1.2,0.,1.2,0.,1.2
1979-07-28 21:07:40.390 ,0,0,0.,1.2,240.,1.2,0.,1.2,0.,1.2
1979-07-28 21:07:41.590 ,0,0,0.,1.2,128.,1.2,0.,1.2,0.,1.2
1979-07-28 21:07:42.790 ,0,0,1.,1.2,120.,1.2,0.,1.2,0.,1.2
1979-07-28 21:07:43.990 ,0,0,0.,1.2,120.,1.2,0.,1.2,0.,1.2
1979-07-28 21:07:45.190 ,0,0,2.,1.2,114.,1.2,0.,1.2,0.,1.2
1979-07-28 21:07:46.390 ,0,0,0.,1.2,264.,1.2,0.,1.2,0.,1.2
1979-07-28 21:07:47.590 ,0,0,0.,1.2,136.,1.2,0.,1.2,0.,1.2
1979-07-28 21:07:48.790 ,0,0,0.,1.2,116.,1.2,0.,1.2,0.,1.2
1979-07-28 21:07:49.990 ,0,0,0.,1.2,114.,1.2,0.,1.2,0.,1.2
1979-07-28 21:07:51.190 ,0,0,1.,1.2,110.,1.2,0.,1.2,0.,1.2
1979-07-28 21:07:52.390 ,0,0,0.,1.2,118.,1.2,0.,1.2,0.,1.2
1979-07-28 21:07:53.590 ,0,0,2.,1.2,110.,1.2,0.,1.2,0.,1.2
1979-07-28 21:07:54.790 ,0,0,0.,1.2,104.,1.2,0.,1.2,0.,1.2
1979-07-28 21:07:55.990 ,0,0,2.,1.2,124.,1.2,0.,1.2,0.,1.2
1979-07-28 21:07:57.190 ,0,0,0.,1.2,122.,1.2,0.,1.2,0.,1.2
1979-07-28 21:07:58.390 ,4,0,0.,1.2,216.,1.2,0.,1.2,0.,1.2
1979-07-28 21:07:59.590 ,4,0,2.,1.2,114.,1.2,0.,1.2,0.,1.2
1979-07-28 21:08:00.790 ,4,0,0.,1.2,132.,1.2,0.,1.2,0.,1.2
1979-07-28 21:08:01.990 ,4,0,1.,1.2,118.,1.2,0.,1.2,0.,1.2
1979-07-28 21:08:03.190 ,4,0,1.,1.2,118.,1.2,0.,1.2,0.,1.2
1979-07-28 21:08:04.390 ,4,0,0.,1.2,224.,1.2,0.,1.2,0.,1.2
1979-07-28 21:08:05.590 ,4,0,0.,1.2,102.,1.2,0.,1.2,0.,1.2
1979-07-28 21:08:06.790 ,4,0,0.,1.2,100.,1.2,0.,1.2,0.,1.2
1979-07-28 21:08:07.990 ,4,0,0.,1.2,78.,1.2,0.,1.2,0.,1.2
1979-07-28 21:08:09.190 ,4,0,0.,1.2,96.,1.2,0.,1.2,0.,1.2
1979-07-28 21:08:10.390 ,4,0,1.,1.2,240.,1.2,0.,1.2,0.,1.2
1979-07-28 21:08:11.590 ,4,0,1.,1.2,56.,1.2,0.,1.2,0.,1.2
1979-07-28 21:08:12.790 ,4,0,1.,1.2,45.,1.2,0.,1.2,0.,1.2
1979-07-28 21:08:13.990 ,4,0,0.,1.2,47.,1.2,0.,1.2,0.,1.2
1979-07-28 21:08:15.190 ,4,0,0.,1.2,45.,1.2,0.,1.2,0.,1.2
1979-07-28 21:08:16.390 ,4,0,0.,1.2,184.,1.2,0.,1.2,0.,1.2
1979-07-28 21:08:17.590 ,4,0,1.,1.2,116.,1.2,0.,1.2,0.,1.2
1979-07-28 21:08:18.790 ,4,0,1.,1.2,116.,1.2,0.,1.2,0.,1.2
1979-07-28 21:08:19.990 ,4,0,1.,1.2,114.,1.2,0.,1.2,0.,1.2
1979-07-28 21:08:21.190 ,4,0,0.,1.2,120.,1.2,0.,1.2,0.,1.2
1979-07-28 21:08:22.390 ,7,0,0.,1.2,264.,1.2,0.,1.2,0.,1.2